Weather History for Ludington, MI

Change the Weather History Date:

Thursday, October 10, 2013

  Actual Average Record
Temperature  
Mean Temperature 54 °F -  
Max Temperature 71 °F 59 °F 80 °F (1949)
Min Temperature 38 °F 41 °F 28 °F (1986)
Degree Days  
Heating Degree Days 10    
Growing Degree Days 4 (Base 50)    
Moisture  
Dew Point 46 °F    
Average Humidity 76    
Maximum Humidity 93    
Minimum Humidity 36    
Precipitation  
Precipitation 0.00 in - - ()
Sea Level Pressure  
Sea Level Pressure 30.16 in    
Wind  
Wind Speed 2 mph (SSE)    
Max Wind Speed 7 mph    
Max Gust Speed -    
Visibility 8 miles    
Events Fog    
Averages and records for this station are not official NWS values.
T = Trace of Precipitation, MM = Missing Value Source: NWS Daily Summary

Daily Weather History Graph

Daily Weather History Graph

Search for Another Location

Airport:

Trip Planner

Search our weather history database for the weather conditions in past years. The results will help you decide how hot, cold, wet, or windy it might be!

Date:

Astronomy

Oct. 10, 2013 Rise Set
Actual Time 7:54 AM EDT 7:10 PM EDT
Civil Twilight 7:25 AM EDT 7:38 PM EDT
Nautical Twilight 6:52 AM EDT 8:12 PM EDT
Astronomical Twilight 6:18 AM EDT 8:45 PM EDT
Moon 1:53 PM EDT (10/10) 11:40 PM EDT (10/10)
Length of Visible Light 12h 13m
Length of Day
11h 15m
Waxing Crescent, 35% of the Moon is Illuminated
Oct 10
Waxing Crescent
Oct 11
First Quarter
Oct 18
Full
Oct 26
Last Quarter
Nov 3
New

Hourly Weather History & Observations

Time (EDT) Temp. Windchill Dew Point Humidity Pressure Visibility Wind Dir Wind Speed Gust Speed Precip Events Conditions
12:15 AM 49.8 °F - 47.3 °F 91% 30.20 in 10.0 mi Calm Calm - N/A   Clear
12:35 AM 48.4 °F - 45.7 °F 90% 30.20 in 1.5 mi Calm Calm - N/A   Mist
12:55 AM 45.9 °F - 43.3 °F 91% 30.19 in 1.0 mi Calm Calm - N/A   Mist
1:15 AM 45.3 °F - 42.6 °F 90% 30.19 in 2.5 mi Calm Calm - N/A   Clear
1:35 AM 45.1 °F 43.7 °F 42.8 °F 91% 30.19 in 10.0 mi ESE 3.5 mph - N/A   Clear
1:55 AM 48.2 °F - 45.7 °F 91% 30.19 in 10.0 mi ESE 4.6 mph - N/A   Clear
2:15 AM 48.4 °F - 45.0 °F 88% 30.19 in 10.0 mi East 3.5 mph - N/A   Clear
2:35 AM 45.3 °F 43.0 °F 42.3 °F 89% 30.19 in 10.0 mi ESE 4.6 mph - N/A   Clear
2:55 AM 48.4 °F - 45.0 °F 88% 30.19 in 10.0 mi SE 3.5 mph - N/A   Clear
3:14 AM 47.5 °F - 43.5 °F 86% 30.19 in 10.0 mi Calm Calm - N/A   Clear
3:35 AM 49.3 °F - 45.1 °F 86% 30.18 in 10.0 mi ESE 3.5 mph - N/A   Clear
3:55 AM 45.3 °F 44.0 °F 41.5 °F 87% 30.18 in 10.0 mi East 3.5 mph - N/A   Clear
4:15 AM 44.4 °F - 41.4 °F 89% 30.18 in 10.0 mi Calm Calm - N/A   Clear
4:35 AM 44.6 °F - 41.9 °F 90% 30.18 in - Calm Calm - N/A   Unknown
4:54 AM 44.4 °F - 41.5 °F 90% 30.19 in 7.0 mi Calm Calm - N/A   Clear
5:15 AM 41.9 °F - 39.2 °F 90% 30.19 in 1.2 mi Calm Calm - N/A   Mist
5:35 AM 42.1 °F - 39.6 °F 91% 30.19 in 0.5 mi Calm Calm - N/A Fog Fog
5:54 AM 42.1 °F - 39.6 °F 91% 30.19 in 1.8 mi Calm Calm - N/A   Mist
6:15 AM 41.0 °F - 38.3 °F 90% 30.20 in 1.0 mi Calm Calm - N/A   Mist
6:35 AM 38.3 °F - 36.0 °F 91% 30.20 in 5.0 mi Calm Calm - N/A   Clear
6:54 AM 41.0 °F - 38.5 °F 91% 30.20 in 5.0 mi Calm Calm - N/A   Clear
7:15 AM 38.7 °F 36.3 °F 36.3 °F 91% 30.20 in 7.0 mi East 3.5 mph - N/A   Clear
7:35 AM 41.0 °F - 38.5 °F 91% 30.20 in 2.0 mi Calm Calm - N/A   Clear
7:55 AM 41.0 °F 39.0 °F 38.5 °F 91% 30.20 in 7.0 mi East 3.5 mph - N/A   Clear
8:15 AM 39.7 °F - 37.2 °F 91% 30.20 in 2.5 mi Calm Calm - N/A   Clear
8:34 AM 41.0 °F 39.0 °F 38.5 °F 91% 30.20 in 7.0 mi East 3.5 mph - N/A   Clear
8:55 AM 44.8 °F - 42.6 °F 92% 30.20 in 10.0 mi Calm Calm - N/A   Clear
9:15 AM 48.4 °F - 46.4 °F 93% 30.21 in 10.0 mi Calm Calm - N/A   Clear
9:35 AM 50.9 °F - 47.8 °F 89% 30.21 in 10.0 mi Calm Calm - N/A   Clear
9:55 AM 53.6 °F - 48.2 °F 82% 30.21 in 10.0 mi Calm Calm - N/A   Clear
10:15 AM 55.9 °F - 48.9 °F 77% 30.21 in 10.0 mi ESE 3.5 mph - N/A   Clear
10:35 AM 58.5 °F - 50.4 °F 74% 30.20 in 10.0 mi ESE 3.5 mph - N/A   Clear
10:55 AM 60.3 °F - 51.1 °F 72% 30.20 in 10.0 mi SE 4.6 mph - N/A   Clear
11:15 AM 62.1 °F - 50.5 °F 66% 30.20 in 10.0 mi SE 3.5 mph - N/A   Clear
11:35 AM 63.5 °F - 50.9 °F 63% 30.19 in 10.0 mi ESE 3.5 mph - N/A   Clear
11:55 AM 65.1 °F - 51.3 °F 61% 30.19 in 10.0 mi ESE 3.5 mph - N/A   Clear
12:15 PM 68.5 °F - 51.4 °F 54% 30.19 in 10.0 mi Calm Calm - N/A   Clear
12:35 PM 71.1 °F - 50.5 °F 48% 30.19 in 10.0 mi SSE 4.6 mph - N/A   Clear
12:55 PM 71.1 °F - 47.3 °F 43% 30.18 in 10.0 mi SSE 5.8 mph - N/A   Clear
1:15 PM 71.1 °F - 44.6 °F 39% 30.18 in 10.0 mi South 4.6 mph - N/A   Clear
1:35 PM 71.1 °F - 43.0 °F 36% 30.17 in 10.0 mi SSW 4.6 mph - N/A   Clear
1:55 PM 71.1 °F - 47.1 °F 42% 30.17 in 10.0 mi SW 3.5 mph - N/A   Clear
2:15 PM 71.1 °F - 46.2 °F 41% 30.16 in 10.0 mi West 5.8 mph - N/A   Clear
2:35 PM 71.1 °F - 46.9 °F 42% 30.15 in 10.0 mi West 4.6 mph - N/A   Clear
2:55 PM 71.1 °F - 46.9 °F 42% 30.15 in 10.0 mi WSW 6.9 mph - N/A   Clear
3:15 PM 71.1 °F - 48.4 °F 44% 30.15 in 10.0 mi West 4.6 mph - N/A   Clear
3:35 PM 71.1 °F - 47.8 °F 44% 30.14 in 10.0 mi WSW 5.8 mph - N/A   Clear
3:55 PM 71.1 °F - 47.1 °F 42% 30.13 in 10.0 mi West 5.8 mph - N/A   Clear
4:15 PM 71.1 °F - 47.5 °F 43% 30.13 in 10.0 mi West 5.8 mph - N/A   Clear
4:35 PM 71.1 °F - 47.5 °F 43% 30.13 in 10.0 mi West 3.5 mph - N/A   Clear
4:55 PM 71.1 °F - 50.4 °F 48% 30.12 in 10.0 mi SW 6.9 mph - N/A   Clear
5:15 PM 69.8 °F - 52.0 °F 53% 30.12 in 10.0 mi SW 6.9 mph - N/A   Clear
5:35 PM 67.3 °F - 50.2 °F 54% 30.13 in 10.0 mi WSW 4.6 mph - N/A   Clear
5:55 PM 66.2 °F - 52.0 °F 60% 30.13 in 10.0 mi Calm Calm - N/A   Clear
6:15 PM 65.8 °F - 49.5 °F 55% 30.12 in 10.0 mi Calm Calm - N/A   Clear
6:35 PM 63.5 °F - 51.1 °F 64% 30.12 in 10.0 mi Calm Calm - N/A   Clear
6:54 PM 61.0 °F - 52.3 °F 73% 30.12 in 10.0 mi Calm Calm - N/A   Clear
7:15 PM 56.5 °F - 51.4 °F 83% 30.11 in 10.0 mi Calm Calm - N/A   Clear
7:35 PM 55.9 °F - 51.4 °F 85% 30.12 in 10.0 mi Calm Calm - N/A   Clear
7:54 PM 55.9 °F - 51.8 °F 86% 30.12 in 10.0 mi Calm Calm - N/A   Clear
8:15 PM 53.6 °F - 50.0 °F 88% 30.12 in 10.0 mi Calm Calm - N/A   Clear
8:35 PM 52.2 °F - 49.3 °F 90% 30.12 in 10.0 mi Calm Calm - N/A   Clear
8:54 PM 50.9 °F - 48.2 °F 90% 30.12 in 10.0 mi Calm Calm - N/A   Clear
9:15 PM 50.9 °F - 48.2 °F 90% 30.12 in 10.0 mi Calm Calm - N/A   Clear
9:35 PM 50.9 °F - 48.2 °F 90% 30.12 in 3.0 mi Calm Calm - N/A   Clear
9:55 PM 50.5 °F - 48.0 °F 91% 30.13 in 3.0 mi Calm Calm - N/A   Clear
10:15 PM 50.9 °F - 48.4 °F 91% 30.12 in 1.2 mi Calm Calm - N/A   Mist
10:35 PM 47.3 °F - 44.8 °F 91% 30.12 in 7.0 mi Calm Calm - N/A   Clear
10:55 PM 46.0 °F - 43.3 °F 90% 30.12 in 3.0 mi Calm Calm - N/A   Clear
11:15 PM 45.9 °F - 43.3 °F 91% 30.11 in 1.0 mi Calm Calm - N/A   Mist
11:35 PM 44.6 °F - 42.3 °F 91% 30.11 in 0.5 mi Calm Calm - N/A Fog Fog
11:55 PM 45.3 °F - 43.2 °F 92% 30.11 in 2.5 mi Calm Calm - N/A   Clear